Location: Amsterdam
(30.7274°N, 84.4357°W)
Time: 21:33:20
(UTC+00:00)

Tiros 1 despin weight - Pass Details

Date: 19 February 2026
Orbit: 556 x 593 km, 48.2° (Epoch: 7 March)

Event Time Altitude Azimuth Distance (km) Brightness Sun altitude
Enters shadow 02:55:54 - 310° (NW) 2,772 ? -45.0°
Rises 02:56:00 0° 310° (NW) 2,734 - -45.0°
Reaches altitude 10° 02:58:14 10° 310° (NW) 1,841 - -45.5°
Maximum altitude 03:02:27 85° 222° (SW) 566 - -46.4°
Drops below altitude 10° 03:06:41 10° 134° (SE) 1,851 - -47.2°
Sets 03:08:56 0° 134° (SE) 2,752 - -47.7°
